Newcastle, WY

5:51 PM MDT on March 27, 2017 (GMT -0600)
Mondell

Weather History for KECS - March, 2014

Change the Weather History Date:

Saturday, March 1, 2014

  Actual Average (KCUT) Record (KCUT)
Temperature  
Mean Temperature -2 °F -  
Max Temperature 5 °F 42 °F 68 °F (1992)
Min Temperature -9 °F 15 °F -24 °F (1947)
Degree Days  
Heating Degree Days 67    
Moisture  
Dew Point -6 °F    
Average Humidity 79    
Maximum Humidity 92    
Minimum Humidity 66    
Precipitation  
Precipitation 0.02 in - - ()
Sea Level Pressure  
Sea Level Pressure 30.11 in    
Wind  
Wind Speed 6 mph (SSE)    
Max Wind Speed 9 mph    
Max Gust Speed -    
Visibility 6 miles    
Events Snow    
Averages and records for this station are not official NWS values.
T = Trace of Precipitation, MM = Missing Value Source: NWS Daily Summary

Daily Weather History Graph

Daily Weather History Graph

Search for Another Location

Airport or City:

Trip Planner

Search our weather history database for the weather conditions in past years. The results will help you decide how hot, cold, wet, or windy it might be!

Date:

Astronomy

Mar. 01, 2014 Rise Set
Actual Time 6:33 AM MST 5:45 PM MST
Civil Twilight 6:05 AM MST 6:14 PM MST
Nautical Twilight 5:31 AM MST 6:48 PM MST
Astronomical Twilight 4:58 AM MST 7:21 PM MST
Moon 6:27 AM MST (3/1) 6:39 PM MST (3/1)
Length of Visible Light 12h 09m
Length of Day
11h 11m
New Moon, 0% of the Moon is Illuminated
Mar 1
New Moon
Mar 8
First Quarter
Mar 16
Full
Mar 23
Last Quarter
Mar 30
New

Hourly Weather History & Observations

Time (MST) Temp. Windchill Dew Point Humidity Pressure Visibility Wind Dir Wind Speed Gust Speed Precip Events Conditions
12:15 AM 5.0 °F -8.1 °F 1.4 °F 85% 30.00 in 3.0 mi SSW 8.1 mph - N/A Snow Light Snow
12:35 AM 5.0 °F -6.9 °F 1.4 °F 85% 30.02 in 1.8 mi SSW 6.9 mph - N/A Snow Light Snow
12:55 AM 5.0 °F - 1.4 °F 85% 30.00 in 1.0 mi North - - N/A Snow Snow
1:15 AM 5.0 °F - 1.4 °F 85% 30.02 in 2.5 mi North - - N/A Snow Light Snow
1:35 AM 3.2 °F - 1.4 °F 92% 30.00 in 1.2 mi North - - N/A Snow Light Snow
1:55 AM 3.2 °F - -0.4 °F 85% 30.02 in 1.0 mi North - - N/A Snow Snow
2:15 AM 3.2 °F - -0.4 °F 85% 30.02 in 1.0 mi North - - N/A Snow Snow
2:35 AM 3.2 °F -4.2 °F -0.4 °F 85% 30.02 in 1.2 mi SSW 3.5 mph - N/A Snow Light Snow
2:55 AM 3.2 °F - -0.4 °F 85% 30.02 in 2.0 mi North - - N/A Snow Light Snow
3:15 AM 1.4 °F - -2.2 °F 85% 30.02 in 2.5 mi North - - 0.01 in Snow Light Snow
3:35 AM 1.4 °F - -2.2 °F 85% 30.02 in 4.0 mi North - - 0.01 in Snow Light Snow
3:55 AM 1.4 °F -6.2 °F -4.0 °F 78% 30.04 in 7.0 mi West 3.5 mph - 0.01 in Snow Light Snow
4:15 AM 1.4 °F -6.2 °F -4.0 °F 78% 30.05 in 7.0 mi West 3.5 mph - N/A Snow Light Snow
4:35 AM 1.4 °F - -4.0 °F 78% 30.05 in 7.0 mi Calm Calm - N/A Snow Light Snow
4:55 AM 1.4 °F - -4.0 °F 78% 30.04 in 10.0 mi North - - N/A   Overcast
5:15 AM 1.4 °F - -4.0 °F 78% 30.04 in 10.0 mi Calm Calm - N/A Snow Light Snow
5:35 AM 1.4 °F - -4.0 °F 78% 30.04 in 10.0 mi North - - N/A Snow Light Snow
5:55 AM 1.4 °F -11.3 °F -4.0 °F 78% 30.06 in 10.0 mi South 6.9 mph - N/A   Overcast
6:15 AM 1.4 °F -13.5 °F -4.0 °F 78% 30.06 in 10.0 mi SSE 9.2 mph - N/A   Overcast
6:35 AM 1.4 °F - -4.0 °F 78% 30.07 in 10.0 mi North - - N/A   Overcast
6:55 AM -0.4 °F - -4.0 °F 85% 30.07 in 7.0 mi North - - N/A   Overcast
7:15 AM -0.4 °F - -5.8 °F 78% 30.08 in 7.0 mi North - - N/A   Mostly Cloudy
7:35 AM -0.4 °F -15.7 °F -5.8 °F 78% 30.10 in 7.0 mi SSE 9.2 mph - N/A   Scattered Clouds
7:55 AM -0.4 °F -14.7 °F -5.8 °F 78% 30.12 in 2.5 mi South 8.1 mph - N/A Snow Light Snow
8:15 AM -0.4 °F - -5.8 °F 78% 30.11 in 2.5 mi North - - N/A Snow Light Snow
8:35 AM -0.4 °F -12.0 °F -5.8 °F 78% 30.11 in 0.8 mi SSE 5.8 mph - N/A Snow Light Snow
8:55 AM 1.4 °F - -5.8 °F 72% 30.12 in 1.2 mi North - - N/A Snow Light Snow
9:15 AM -0.4 °F - -5.8 °F 78% 30.11 in 5.0 mi North - - N/A Snow Light Snow
9:35 AM -0.4 °F - -5.8 °F 78% 30.12 in 10.0 mi North - - N/A   Overcast
9:55 AM -0.4 °F -14.7 °F -5.8 °F 78% 30.12 in 7.0 mi South 8.1 mph - N/A   Mostly Cloudy
10:15 AM 1.4 °F - -7.6 °F 66% 30.10 in 7.0 mi North - - N/A   Scattered Clouds
10:35 AM -0.4 °F - -7.6 °F 72% 30.14 in 10.0 mi North - - N/A   Scattered Clouds
10:55 AM -0.4 °F - -7.6 °F 72% 30.13 in 4.0 mi North - - N/A   Haze
11:15 AM -0.4 °F - -5.8 °F 78% 30.15 in 1.0 mi North - - N/A Snow Light Snow
11:35 AM 1.4 °F - -5.8 °F 72% 30.14 in 0.2 mi North - - 0.01 in Snow Snow
11:55 AM 3.2 °F -7.8 °F -5.8 °F 66% 30.12 in 1.8 mi South 5.8 mph - 0.01 in Snow Light Snow
12:15 PM 1.4 °F -12.5 °F -5.8 °F 72% 30.12 in 7.0 mi South 8.1 mph - N/A   Mostly Cloudy
12:35 PM 3.2 °F -7.8 °F -5.8 °F 66% 30.11 in 7.0 mi South 5.8 mph - N/A   Scattered Clouds
12:55 PM 1.4 °F -12.5 °F -5.8 °F 72% 30.10 in 4.0 mi South 8.1 mph - N/A Snow Light Snow
1:15 PM 1.4 °F - -5.8 °F 72% 30.10 in 7.0 mi North - - N/A   Mostly Cloudy
1:35 PM 1.4 °F -11.3 °F -7.6 °F 66% 30.10 in 10.0 mi South 6.9 mph - N/A   Scattered Clouds
1:55 PM 1.4 °F -9.9 °F -7.6 °F 66% 30.10 in 3.0 mi SSW 5.8 mph - N/A Snow Light Snow
2:15 PM 1.4 °F -11.3 °F -5.8 °F 72% 30.10 in 1.0 mi South 6.9 mph - N/A Snow Light Snow
2:35 PM 1.4 °F -12.5 °F -5.8 °F 72% 30.11 in 0.8 mi South 8.1 mph - N/A Snow Light Snow
2:55 PM -0.4 °F - -5.8 °F 78% 30.11 in 0.8 mi North - - N/A Snow Light Snow
3:15 PM -0.4 °F - -5.8 °F 78% 30.12 in 1.2 mi North - - N/A Snow Light Snow
3:35 PM -0.4 °F - -5.8 °F 78% 30.12 in 1.5 mi North - - N/A Snow Light Snow
3:55 PM -0.4 °F - -7.6 °F 72% 30.12 in 1.8 mi North - - N/A Snow Light Snow
4:15 PM -0.4 °F - -5.8 °F 78% 30.12 in 1.2 mi North - - N/A Snow Light Snow
4:35 PM -2.2 °F - -7.6 °F 78% 30.12 in 1.2 mi North - - N/A Snow Light Snow
4:55 PM -2.2 °F -16.8 °F -7.6 °F 78% 30.13 in 1.5 mi SE 8.1 mph - N/A Snow Light Snow
5:15 PM -4.0 °F - -7.6 °F 85% 30.14 in 2.0 mi North - - N/A Snow Light Snow
5:35 PM -4.0 °F -17.8 °F -7.6 °F 85% 30.14 in 2.5 mi SSE 6.9 mph - N/A Snow Light Snow
5:55 PM -4.0 °F - -7.6 °F 85% 30.14 in 5.0 mi North - - N/A   Haze
6:15 PM -4.0 °F - -7.6 °F 85% 30.15 in 10.0 mi North - - N/A Snow Light Snow
6:35 PM -4.0 °F -16.3 °F -7.6 °F 85% 30.16 in 7.0 mi South 5.8 mph - N/A   Overcast
6:55 PM -4.0 °F -16.3 °F -7.6 °F 85% 30.17 in 7.0 mi South 5.8 mph - N/A   Overcast
7:15 PM -4.0 °F -16.3 °F -7.6 °F 85% 30.17 in 10.0 mi South 5.8 mph - N/A   Scattered Clouds
7:35 PM -4.0 °F - -7.6 °F 85% 30.17 in 10.0 mi North - - N/A   Clear
7:55 PM -4.0 °F - -7.6 °F 85% 30.17 in 10.0 mi North - - N/A   Scattered Clouds
8:15 PM -4.0 °F -17.8 °F -9.4 °F 78% 30.19 in 5.0 mi SSE 6.9 mph - N/A Snow Light Snow
8:35 PM -5.8 °F -22.4 °F -9.4 °F 84% 30.19 in 7.0 mi SSE 9.2 mph - N/A Snow Light Snow
8:55 PM -5.8 °F -22.4 °F -9.4 °F 84% 30.19 in 5.0 mi SSE 9.2 mph - N/A Snow Light Snow
9:15 PM -7.6 °F -18.8 °F -13.0 °F 77% 30.19 in 10.0 mi SE 4.6 mph - N/A Snow Light Snow
9:35 PM -7.6 °F -18.8 °F -13.0 °F 77% 30.19 in 7.0 mi ESE 4.6 mph - N/A Snow Light Snow
9:55 PM -9.4 °F -18.6 °F -13.0 °F 84% 30.19 in 10.0 mi ESE 3.5 mph - N/A Snow Light Snow
10:15 PM -9.4 °F -18.6 °F -14.8 °F 77% 30.19 in 10.0 mi ESE 3.5 mph - N/A   Clear
10:35 PM -9.4 °F -20.9 °F -14.8 °F 77% 30.19 in 10.0 mi ESE 4.6 mph - N/A   Clear
10:55 PM -9.4 °F -18.6 °F -14.8 °F 77% 30.19 in 10.0 mi ESE 3.5 mph - N/A   Clear
11:15 PM -9.4 °F -20.9 °F -14.8 °F 77% 30.19 in 10.0 mi East 4.6 mph - N/A   Clear
11:35 PM -9.4 °F -20.9 °F -14.8 °F 77% 30.17 in 10.0 mi SE 4.6 mph - N/A   Clear
11:55 PM -9.4 °F -20.9 °F -14.8 °F 77% 30.18 in 10.0 mi SE 4.6 mph - N/A   Clear